User: anonymous   Login
Location: Unspecified
(0.0000°N, 0.0000°E)
Time: 11:49:46
(UTC+00:00)
Language:

DSP F15 - Orbit

View from above orbital plane
View from above orbital plane
View from above satellite
View from above satellite

Ground track
Ground track

The orbit data is extracted from the following two-line orbital elements,

1 20929U 90095A   17255.20037977 0.00000000  00000-0  00000-0 0    03
2 20929  15.3743  10.2356 0006686 334.0778  25.9007  0.98395588    00
Epoch (UTC): 12 September 2017 04:48:32
Eccentricity: 0.0006686
inclination: 15.3743°
perigee height: 36292 km
apogee height: 36349 km
right ascension of ascending node: 10.2356°
argument of perigee: 334.0778°
revolutions per day: 0.98395588
mean anomaly at epoch: 25.9007°
orbit number at epoch: 0

The dashed part of the orbit path shows where the satellite is in the earth's shadow,  

DLR